軌道要素
Epoch 1999 Mar. 3.0 TT = JDT 2451240.5
T 1999 Mar. 10.06287 TT MPC
q 2.1338677 (2000.0) P Q
n 0.06599930 Peri. 180.89233 -0.56475077 -0.77869546
a 6.0642414 Node 303.54249 +0.75917939 -0.36036817
e 0.6481229 Incl. 19.14120 +0.32357878 -0.51358365
P 14.9
From 719 observations 1998 Oct. 24-2013 July 12, mean residual 0".8.
|